Le nostre stazioni meteo in Italia

Pubblicità
Il mio iltempo24.it
Dalwhinnie, Gran Bretagna (99005): Temperatura & dewpoint: 16.06.2017 21:00:00 - 22.06.2017 21:00:00 (BST)Dalwhinnie, Gran Bretagna (99005): Temperatura 5cm: 16.06.2017 21:00:00 - 22.06.2017 21:00:00 (BST)Dalwhinnie, Gran Bretagna (99005): velocità del vento: 16.06.2017 21:00:00 - 22.06.2017 21:00:00 (BST)Dalwhinnie, Gran Bretagna (99005): direzione del vento: 16.06.2017 21:00:00 - 22.06.2017 21:00:00 (BST)Dalwhinnie, Gran Bretagna (99005): visibility: 16.06.2017 21:00:00 - 22.06.2017 21:00:00 (BST)Dalwhinnie, Gran Bretagna (99005): precipitazioni: 16.06.2017 21:00:00 - 22.06.2017 21:00:00 (BST)
Data & Tempo tt [°C] td [°C] tt 5cm [°C] ff [km/h] ff [kn] dd vv [km] rr [mm]
22.06.2017 21:00:00 11,3 8,5 - - - - - 0,0
22.06.2017 20:00:00 12,4 8,9 - - - - - 0,0
22.06.2017 19:00:00 12,9 9,2 - - - - - 0,0
22.06.2017 18:00:00 13,4 9,4 - - - - - 0,0
22.06.2017 17:00:00 13,5 8,9 - - - - - 0,0
22.06.2017 16:00:00 14,3 8,3 - - - - - 0,0
22.06.2017 15:00:00 15,3 9,1 - - - - - 0,0
22.06.2017 14:00:00 15,2 9,4 - - - - - 0,0
22.06.2017 13:00:00 14,7 9,0 - - - - - 0,0
22.06.2017 12:00:00 14,1 8,7 - - - - - 0,0
22.06.2017 11:00:00 14,4 8,8 - - - - - 0,0
22.06.2017 10:00:00 14,0 9,4 - 39 21 N 1,8 0,0
22.06.2017 09:00:00 13,7 10,6 - - - - - 0,0
22.06.2017 08:00:00 13,1 11,0 - - - - - 0,0
22.06.2017 07:00:00 12,6 11,7 - - - - - 0,0
22.06.2017 06:00:00 12,4 11,1 - - - - - 0,0
22.06.2017 05:00:00 12,3 11,3 - - - - - 0,0
22.06.2017 04:00:00 12,4 11,2 - - - - - 0,0
22.06.2017 03:00:00 12,9 11,3 - - - - - 0,0
22.06.2017 02:00:00 13,0 12,2 - - - - - 0,0
22.06.2017 01:00:00 14,1 13,3 - - - - - 0,0
22.06.2017 00:00:00 15,0 14,3 - - - - - 0,0
21.06.2017 23:00:00 14,7 14,3 - - - - - 0,4
21.06.2017 22:00:00 15,1 14,4 - - - - - 0,2
21.06.2017 21:00:00 15,2 14,0 - - - - - 0,0
21.06.2017 20:00:00 15,3 14,3 - - - - - 2,4
21.06.2017 19:00:00 15,6 14,1 - - - - - 5,8
21.06.2017 18:00:00 15,6 14,1 - - - - - 0,4
21.06.2017 17:00:00 16,9 13,7 - - - - - 0,0
21.06.2017 16:00:00 17,9 13,7 - - - - - 0,0
21.06.2017 15:00:00 18,2 14,8 - - - - - 0,0
21.06.2017 14:00:00 16,6 12,9 - - - - - 0,0
21.06.2017 13:00:00 16,1 12,7 - - - - - 0,0
21.06.2017 12:00:00 15,4 12,3 - - - - - 0,0
21.06.2017 11:00:00 15,7 12,6 - - - - - 0,0
21.06.2017 10:00:00 15,0 11,6 15,2 43 23 N 1,0 0,0
21.06.2017 09:00:00 13,8 11,0 - - - - - 0,0
21.06.2017 08:00:00 13,8 10,6 - - - - - 0,0
21.06.2017 07:00:00 13,7 10,9 - - - - - 0,0
21.06.2017 06:00:00 13,0 10,4 - - - - - 0,0
21.06.2017 05:00:00 12,7 10,1 - - - - - 0,0
21.06.2017 04:00:00 12,2 10,0 - - - - - 0,0
21.06.2017 03:00:00 12,1 9,8 - - - - - 0,0
21.06.2017 02:00:00 12,5 9,9 - - - - - 0,0
21.06.2017 01:00:00 11,5 9,0 - - - - - 0,0
21.06.2017 00:00:00 12,1 8,9 - - - - - 0,0
20.06.2017 23:00:00 12,6 8,7 - - - - - 0,0
20.06.2017 22:00:00 13,4 9,0 - - - - - 0,0
20.06.2017 21:00:00 15,3 9,2 - - - - - 0,0
20.06.2017 20:00:00 16,4 9,2 - - - - - 0,0
20.06.2017 19:00:00 18,0 9,2 - - - - - 0,0
20.06.2017 18:00:00 18,2 8,8 - - - - - 0,0
20.06.2017 17:00:00 17,3 8,8 - - - - - 0,0
20.06.2017 16:00:00 18,3 8,5 - - - - - 0,0
20.06.2017 15:00:00 18,5 6,2 - - - - - 0,0
20.06.2017 14:00:00 17,5 5,5 - - - - - 0,0
20.06.2017 13:00:00 16,9 6,5 - - - - - 0,0
20.06.2017 12:00:00 14,6 5,7 - - - - - 0,0
20.06.2017 11:00:00 14,1 7,1 - - - - - 0,0
20.06.2017 10:00:00 11,7 5,0 12,0 79 43 N 1,7 0,0
20.06.2017 09:00:00 10,6 4,7 - - - - - 0,0
20.06.2017 08:00:00 9,7 6,2 - - - - - 0,0
20.06.2017 07:00:00 6,6 4,9 - - - - - 0,0
20.06.2017 06:00:00 2,8 2,1 - - - - - 0,0
20.06.2017 05:00:00 1,4 0,9 - - - - - 0,0
20.06.2017 04:00:00 2,2 1,4 - - - - - 0,0
20.06.2017 03:00:00 2,7 1,9 - - - - - 0,0
20.06.2017 02:00:00 3,7 2,6 - - - - - 0,0
20.06.2017 01:00:00 5,0 3,3 - - - - - 0,0
20.06.2017 00:00:00 6,8 4,1 - - - - - 0,0
19.06.2017 23:00:00 8,5 4,5 - - - - - 0,0
19.06.2017 22:00:00 10,8 5,8 - - - - - 0,0
19.06.2017 21:00:00 12,5 5,2 - - - - - 0,0
19.06.2017 20:00:00 13,9 5,6 - - - - - 0,0
19.06.2017 19:00:00 15,6 6,0 - - - - - 0,0
19.06.2017 18:00:00 16,7 7,5 - - - - - 0,0
19.06.2017 17:00:00 16,8 7,9 - - - - - 0,0
19.06.2017 16:00:00 16,5 9,5 - - - - - 0,0
19.06.2017 15:00:00 15,6 10,1 - - - - - 0,0
19.06.2017 14:00:00 15,4 9,6 - - - - - 0,0
19.06.2017 13:00:00 14,8 10,5 - - - - - 0,0
19.06.2017 12:00:00 13,9 9,6 - - - - - 0,0
19.06.2017 11:00:00 16,0 9,2 - - - - - 0,0
19.06.2017 10:00:00 16,3 10,6 16,6 59 32 N 1,8 0,0
19.06.2017 09:00:00 14,8 12,0 - - - - - 0,0
19.06.2017 08:00:00 14,0 13,0 - - - - - 0,0
19.06.2017 07:00:00 13,6 12,1 - - - - - 0,0
19.06.2017 06:00:00 13,4 12,1 - - - - - 0,0
19.06.2017 05:00:00 13,0 12,0 - - - - - 0,0
19.06.2017 04:00:00 12,0 11,3 - - - - - 0,0
19.06.2017 03:00:00 12,1 11,3 - - - - - 0,0
19.06.2017 02:00:00 12,1 11,2 - - - - - 0,0
19.06.2017 01:00:00 12,3 11,3 - - - - - 0,0
19.06.2017 00:00:00 12,4 11,0 - - - - - 0,0
18.06.2017 23:00:00 12,9 11,1 - - - - - 0,0
18.06.2017 22:00:00 13,4 11,3 - - - - - 0,0
18.06.2017 21:00:00 14,4 12,3 - - - - - 0,0
18.06.2017 20:00:00 13,9 12,5 - - - - - 0,0
18.06.2017 19:00:00 15,0 12,1 - - - - - 0,0
18.06.2017 18:00:00 15,1 12,1 - - - - - 0,0
18.06.2017 17:00:00 17,0 12,7 - - - - - 0,0
18.06.2017 16:00:00 16,6 12,8 - - - - - 0,0
18.06.2017 15:00:00 16,9 12,7 - - - - - 0,0
18.06.2017 14:00:00 16,7 12,3 - - - - - 0,0
18.06.2017 13:00:00 17,0 12,7 - - - - - 0,0
18.06.2017 12:00:00 16,6 12,5 - - - - - 0,0
18.06.2017 11:00:00 16,4 12,9 - - - - - 0,0
18.06.2017 10:00:00 14,9 12,5 15,4 61 33 N 1,8 0,0
18.06.2017 09:00:00 14,4 12,6 - - - - - 0,0
18.06.2017 08:00:00 13,7 12,2 - - - - - 0,0
18.06.2017 07:00:00 13,2 12,1 - - - - - 0,0
18.06.2017 06:00:00 12,7 12,1 - - - - - 0,2
18.06.2017 05:00:00 12,6 12,0 - - - - - 0,0
18.06.2017 04:00:00 12,7 12,2 - - - - - 0,0
18.06.2017 03:00:00 12,8 12,2 - - - - - 0,0
18.06.2017 02:00:00 13,3 12,6 - - - - - 0,2
18.06.2017 01:00:00 13,4 12,8 - - - - - 0,2
18.06.2017 00:00:00 13,7 13,2 - - - - - 0,4
17.06.2017 23:00:00 13,6 13,1 - - - - - 0,6
17.06.2017 22:00:00 14,2 13,4 - - - - 10 0,4
17.06.2017 21:00:00 14,5 13,8 - - - - - 0,6
17.06.2017 20:00:00 14,5 13,8 - - - - - 0,4
17.06.2017 19:00:00 14,8 13,8 - - - - - 0,4
17.06.2017 18:00:00 15,7 13,9 - - - - - 0,4
17.06.2017 17:00:00 15,4 14,3 - - - - - 0,2
17.06.2017 16:00:00 16,3 13,5 - - - - - 0,0
17.06.2017 15:00:00 16,4 13,6 - - - - - 0,0
17.06.2017 14:00:00 17,4 14,4 - - - - - 0,0
17.06.2017 13:00:00 16,9 13,8 - - - - - 0,0
17.06.2017 12:00:00 17,8 14,0 - - - - - 0,0
17.06.2017 11:00:00 17,0 13,8 - - - - - 0,0
17.06.2017 10:00:00 14,8 12,5 15,2 48 26 N 2,4 0,0
17.06.2017 09:00:00 13,6 11,9 - - - - - 0,0
17.06.2017 08:00:00 13,5 11,8 - - - - - 0,0
17.06.2017 07:00:00 13,6 11,5 - - - - - 0,0
17.06.2017 06:00:00 13,5 11,6 - - - - - 0,0
17.06.2017 05:00:00 13,3 11,6 - - - - - 0,0
17.06.2017 04:00:00 13,5 11,7 - - - - - 0,0
17.06.2017 03:00:00 13,5 11,9 - - - - - 0,0
17.06.2017 02:00:00 13,1 11,7 - - - - - 0,0
17.06.2017 01:00:00 13,1 11,7 - - - - - 0,0
17.06.2017 00:00:00 13,0 11,4 - - - - - 0,0
16.06.2017 23:00:00 13,3 11,4 - - - - - 0,0
16.06.2017 22:00:00 13,4 11,0 - - - - - 0,0
16.06.2017 21:00:00 13,5 10,9 - - - - - 0,0

tt = Temperatura
td = dewpoint
tt 5cm = Temperatura 5cm
ff = velocità del vento
dd = direzione del vento
vv = visibility
rr = precipitazioni

Stazioni seguenti

WeatherPro
AMSI
MeteoEarth